Year,Month,Day,Hour,Minute,Value (Times are PST for temperature in C)
2016,06,17,00,00,10.90
2016,06,17,00,01,10.90
2016,06,17,00,02,10.90
2016,06,17,00,03,10.90
2016,06,17,00,04,10.90
2016,06,17,00,05,10.80
2016,06,17,00,06,10.80
2016,06,17,00,07,10.80
2016,06,17,00,08,10.80
2016,06,17,00,09,10.80
2016,06,17,00,10,10.80
2016,06,17,00,11,10.80
2016,06,17,00,12,10.70
2016,06,17,00,13,10.70
2016,06,17,00,14,10.70
2016,06,17,00,15,10.70
2016,06,17,00,16,10.60
2016,06,17,00,17,10.60
2016,06,17,00,18,10.60
2016,06,17,00,19,10.60
2016,06,17,00,20,10.50
2016,06,17,00,21,10.40
2016,06,17,00,22,10.40
2016,06,17,00,23,10.40
2016,06,17,00,24,10.40
2016,06,17,00,25,10.40
2016,06,17,00,26,10.30
2016,06,17,00,27,10.30
2016,06,17,00,28,10.30
2016,06,17,00,29,10.30
2016,06,17,00,30,10.30
2016,06,17,00,31,10.30
2016,06,17,00,32,10.30
2016,06,17,00,33,10.20
2016,06,17,00,34,10.20
2016,06,17,00,35,10.20
2016,06,17,00,36,10.20
2016,06,17,00,37,10.20
2016,06,17,00,38,10.20
2016,06,17,00,39,10.20
2016,06,17,00,40,10.20
2016,06,17,00,41,10.20
2016,06,17,00,42,10.20
2016,06,17,00,43,10.20
2016,06,17,00,44,10.20
2016,06,17,00,45,10.20
2016,06,17,00,46,10.20
2016,06,17,00,47,10.20
2016,06,17,00,48,10.20
2016,06,17,00,49,10.20
2016,06,17,00,50,10.20
2016,06,17,00,51,10.20
2016,06,17,00,52,10.20
2016,06,17,00,53,10.20
2016,06,17,00,54,10.20
2016,06,17,00,55,10.20
2016,06,17,00,56,10.20
2016,06,17,00,57,10.20
2016,06,17,00,58,10.10
2016,06,17,00,59,10.10
2016,06,17,01,00,10.10
2016,06,17,01,01,10.00
2016,06,17,01,02,9.90
2016,06,17,01,03,9.90
2016,06,17,01,04,9.90
2016,06,17,01,05,9.80
2016,06,17,01,06,9.80
2016,06,17,01,07,9.80
2016,06,17,01,08,9.80
2016,06,17,01,09,9.70
2016,06,17,01,10,9.70
2016,06,17,01,11,9.70
2016,06,17,01,12,9.60
2016,06,17,01,14,9.60
2016,06,17,01,15,9.50
2016,06,17,01,16,9.50
2016,06,17,01,17,9.50
2016,06,17,01,18,9.40
2016,06,17,01,19,9.40
2016,06,17,01,20,9.40
2016,06,17,01,21,9.30
2016,06,17,01,22,9.30
2016,06,17,01,23,9.30
2016,06,17,01,24,9.30
2016,06,17,01,25,9.30
2016,06,17,01,26,9.30
2016,06,17,01,27,9.20
2016,06,17,01,28,9.20
2016,06,17,01,29,9.20
2016,06,17,01,30,9.20
2016,06,17,01,31,9.20
2016,06,17,01,32,9.20
2016,06,17,01,33,9.20
2016,06,17,01,34,9.10
2016,06,17,01,35,9.10
2016,06,17,01,36,9.10
2016,06,17,01,37,9.10
2016,06,17,01,38,9.10
2016,06,17,01,39,9.10
2016,06,17,01,40,9.10
2016,06,17,01,41,9.10
2016,06,17,01,42,9.00
2016,06,17,01,43,9.00
2016,06,17,01,44,9.00
2016,06,17,01,45,9.00
2016,06,17,01,46,8.90
2016,06,17,01,47,8.90
2016,06,17,01,48,8.90
2016,06,17,01,49,8.90
2016,06,17,01,50,8.90
2016,06,17,01,51,8.80
2016,06,17,01,52,8.80
2016,06,17,01,53,8.80
2016,06,17,01,54,8.80
2016,06,17,01,55,8.80
2016,06,17,01,56,8.80
2016,06,17,01,57,8.80
2016,06,17,01,58,8.80
2016,06,17,01,59,8.70
2016,06,17,02,00,8.70
2016,06,17,02,01,8.70
2016,06,17,02,02,8.70
2016,06,17,02,03,8.60
2016,06,17,02,04,8.60
2016,06,17,02,05,8.60
2016,06,17,02,06,8.60
2016,06,17,02,07,8.50
2016,06,17,02,08,8.50
2016,06,17,02,09,8.40
2016,06,17,02,10,8.40
2016,06,17,02,11,8.40
2016,06,17,02,12,8.40
2016,06,17,02,13,8.30
2016,06,17,02,14,8.30
2016,06,17,02,15,8.30
2016,06,17,02,16,8.30
2016,06,17,02,17,8.20
2016,06,17,02,18,8.20
2016,06,17,02,19,8.20
2016,06,17,02,20,8.20
2016,06,17,02,21,8.20
2016,06,17,02,22,8.10
2016,06,17,02,23,8.10
2016,06,17,02,24,8.10
2016,06,17,02,25,8.10
2016,06,17,02,26,8.10
2016,06,17,02,27,8.10
2016,06,17,02,28,8.00
2016,06,17,02,29,8.00
2016,06,17,02,30,8.00
2016,06,17,02,31,7.90
2016,06,17,02,32,7.90
2016,06,17,02,33,7.90
2016,06,17,02,34,7.90
2016,06,17,02,35,7.90
2016,06,17,02,38,7.90
2016,06,17,02,40,7.90
2016,06,17,02,41,7.80
2016,06,17,02,42,7.80
2016,06,17,02,43,7.80
2016,06,17,02,44,7.80
2016,06,17,02,45,7.80
2016,06,17,02,46,7.80
2016,06,17,02,47,7.80
2016,06,17,02,48,7.80
2016,06,17,02,49,7.80
2016,06,17,02,50,7.80
2016,06,17,02,51,7.70
2016,06,17,02,52,7.70
2016,06,17,02,53,7.70
2016,06,17,02,54,7.70
2016,06,17,02,55,7.70
2016,06,17,02,56,7.70
2016,06,17,02,57,7.70
2016,06,17,02,58,7.70
2016,06,17,02,59,7.70
2016,06,17,03,00,7.70
2016,06,17,03,01,7.70
2016,06,17,03,02,7.70
2016,06,17,03,03,7.60
2016,06,17,03,04,7.60
2016,06,17,03,05,7.60
2016,06,17,03,06,7.60
2016,06,17,03,07,7.60
2016,06,17,03,08,7.60
2016,06,17,03,09,7.60
2016,06,17,03,10,7.60
2016,06,17,03,11,7.60
2016,06,17,03,12,7.50
2016,06,17,03,13,7.50
2016,06,17,03,14,7.50
2016,06,17,03,15,7.50
2016,06,17,03,16,7.40
2016,06,17,03,17,7.40
2016,06,17,03,18,7.40
2016,06,17,03,19,7.40
2016,06,17,03,20,7.40
2016,06,17,03,21,7.40
2016,06,17,03,22,7.40
2016,06,17,03,23,7.30
2016,06,17,03,24,7.30
2016,06,17,03,25,7.30
2016,06,17,03,26,7.30
2016,06,17,03,27,7.30
2016,06,17,03,28,7.30
2016,06,17,03,29,7.30
2016,06,17,03,30,7.30
2016,06,17,03,31,7.30
2016,06,17,03,32,7.30
2016,06,17,03,33,7.30
2016,06,17,03,34,7.30
2016,06,17,03,35,7.20
2016,06,17,03,36,7.20
2016,06,17,03,37,7.20
2016,06,17,03,38,7.20
2016,06,17,03,39,7.20
2016,06,17,03,40,7.20
2016,06,17,03,41,7.20
2016,06,17,03,42,7.20
2016,06,17,03,43,7.20
2016,06,17,03,44,7.10
2016,06,17,03,45,7.10
2016,06,17,03,46,7.10
2016,06,17,03,47,7.10
2016,06,17,03,48,7.10
2016,06,17,03,49,7.10
2016,06,17,03,50,7.10
2016,06,17,03,51,7.10
2016,06,17,03,52,7.00
2016,06,17,03,53,7.00
2016,06,17,03,54,7.00
2016,06,17,03,55,7.00
2016,06,17,03,56,7.00
2016,06,17,03,57,7.00
2016,06,17,03,58,6.90
2016,06,17,03,59,6.90
2016,06,17,04,00,6.90
2016,06,17,04,01,6.90
2016,06,17,04,02,6.90
2016,06,17,04,03,6.90
2016,06,17,04,04,6.90
2016,06,17,04,05,6.90
2016,06,17,04,06,6.90
2016,06,17,04,07,6.90
2016,06,17,04,08,6.90
2016,06,17,04,09,6.90
2016,06,17,04,10,6.80
2016,06,17,04,11,6.80
2016,06,17,04,12,6.80
2016,06,17,04,13,6.80
2016,06,17,04,14,6.80
2016,06,17,04,15,6.80
2016,06,17,04,16,6.80
2016,06,17,04,17,6.70
2016,06,17,04,18,6.70
2016,06,17,04,19,6.70
2016,06,17,04,20,6.70
2016,06,17,04,21,6.70
2016,06,17,04,22,6.70
2016,06,17,04,23,6.70
2016,06,17,04,24,6.70
2016,06,17,04,25,6.70
2016,06,17,04,26,6.60
2016,06,17,04,27,6.60
2016,06,17,04,28,6.60
2016,06,17,04,29,6.60
2016,06,17,04,30,6.60
2016,06,17,04,31,6.60
2016,06,17,04,32,6.60
2016,06,17,04,33,6.60
2016,06,17,04,34,6.60
2016,06,17,04,35,6.50
2016,06,17,04,36,6.50
2016,06,17,04,37,6.50
2016,06,17,04,38,6.50
2016,06,17,04,39,6.50
2016,06,17,04,40,6.50
2016,06,17,04,41,6.40
2016,06,17,04,42,6.40
2016,06,17,04,43,6.40
2016,06,17,04,44,6.40
2016,06,17,04,45,6.40
2016,06,17,04,46,6.40
2016,06,17,04,47,6.40
2016,06,17,04,48,6.40
2016,06,17,04,49,6.40
2016,06,17,04,50,6.40
2016,06,17,04,51,6.40
2016,06,17,04,52,6.40
2016,06,17,04,53,6.30
2016,06,17,04,54,6.30
2016,06,17,04,55,6.30
2016,06,17,04,56,6.30
2016,06,17,04,57,6.30
2016,06,17,04,58,6.30
2016,06,17,04,59,6.30
2016,06,17,05,00,6.30
2016,06,17,05,01,6.30
2016,06,17,05,02,6.30
2016,06,17,05,03,6.30
2016,06,17,05,04,6.30
2016,06,17,05,05,6.20
2016,06,17,05,06,6.20
2016,06,17,05,07,6.20
2016,06,17,05,08,6.20
2016,06,17,05,09,6.20
2016,06,17,05,10,6.20
2016,06,17,05,11,6.20
2016,06,17,05,12,6.20
2016,06,17,05,13,6.20
2016,06,17,05,14,6.20
2016,06,17,05,15,6.20
2016,06,17,05,16,6.20
2016,06,17,05,17,6.20
2016,06,17,05,18,6.20
2016,06,17,05,19,6.20
2016,06,17,05,20,6.20
2016,06,17,05,21,6.20
2016,06,17,05,22,6.20
2016,06,17,05,23,6.20
2016,06,17,05,24,6.20
2016,06,17,05,25,6.20
2016,06,17,05,26,6.20
2016,06,17,05,27,6.20
2016,06,17,05,28,6.20
2016,06,17,05,29,6.20
2016,06,17,05,30,6.20
2016,06,17,05,31,6.20
2016,06,17,05,32,6.20
2016,06,17,05,33,6.20
2016,06,17,05,34,6.20
2016,06,17,05,35,6.20
2016,06,17,05,36,6.20
2016,06,17,05,37,6.20
2016,06,17,05,38,6.20
2016,06,17,05,39,6.20
2016,06,17,05,40,6.20
2016,06,17,05,41,6.20
2016,06,17,05,42,6.10
2016,06,17,05,43,6.10
2016,06,17,05,44,6.10
2016,06,17,05,45,6.10
2016,06,17,05,46,6.10
2016,06,17,05,47,6.10
2016,06,17,05,48,6.10
2016,06,17,05,49,6.10
2016,06,17,05,50,6.10
2016,06,17,05,51,6.10
2016,06,17,05,52,6.10
2016,06,17,05,53,6.10
2016,06,17,05,54,6.10
2016,06,17,05,55,6.10
2016,06,17,05,56,6.10
2016,06,17,05,57,6.10
2016,06,17,05,58,6.10
2016,06,17,05,59,6.10
2016,06,17,06,00,6.10
2016,06,17,06,01,6.10
2016,06,17,06,02,6.10
2016,06,17,06,03,6.10
2016,06,17,06,04,6.20
2016,06,17,06,05,6.20
2016,06,17,06,06,6.20
2016,06,17,06,07,6.20
2016,06,17,06,08,6.20
2016,06,17,06,09,6.20
2016,06,17,06,10,6.20
2016,06,17,06,11,6.20
2016,06,17,06,12,6.20
2016,06,17,06,13,6.30
2016,06,17,06,14,6.30
2016,06,17,06,15,6.30
2016,06,17,06,16,6.30
2016,06,17,06,17,6.30
2016,06,17,06,18,6.40
2016,06,17,06,19,6.40
2016,06,17,06,20,6.40
2016,06,17,06,21,6.40
2016,06,17,06,22,6.50
2016,06,17,06,23,6.50
2016,06,17,06,24,6.50
2016,06,17,06,25,6.60
2016,06,17,06,26,6.60
2016,06,17,06,27,6.60
2016,06,17,06,28,6.60
2016,06,17,06,29,6.60
2016,06,17,06,30,6.60
2016,06,17,06,31,6.60
2016,06,17,06,32,6.70
2016,06,17,06,33,6.70
2016,06,17,06,34,6.70
2016,06,17,06,35,6.70
2016,06,17,06,36,6.80
2016,06,17,06,37,6.80
2016,06,17,06,38,6.80
2016,06,17,06,39,6.80
2016,06,17,06,40,6.90
2016,06,17,06,41,6.90
2016,06,17,06,42,7.00
2016,06,17,06,43,7.00
2016,06,17,06,44,7.10
2016,06,17,06,45,7.10
2016,06,17,06,46,7.20
2016,06,17,06,47,7.30
2016,06,17,06,48,7.30
2016,06,17,06,49,7.40
2016,06,17,06,50,7.40
2016,06,17,06,51,7.50
2016,06,17,06,52,7.50
2016,06,17,06,53,7.60
2016,06,17,06,54,7.60
2016,06,17,06,55,7.70
2016,06,17,06,56,7.70
2016,06,17,06,57,7.70
2016,06,17,06,58,7.80
2016,06,17,06,59,7.80
2016,06,17,07,00,7.80
2016,06,17,07,01,7.90
2016,06,17,07,02,8.00
2016,06,17,07,03,8.10
2016,06,17,07,04,8.20
2016,06,17,07,05,8.20
2016,06,17,07,06,8.30
2016,06,17,07,07,8.30
2016,06,17,07,09,8.40
2016,06,17,07,10,8.50
2016,06,17,07,11,8.60
2016,06,17,07,12,8.70
2016,06,17,07,13,8.70
2016,06,17,07,14,8.80
2016,06,17,07,15,8.90
2016,06,17,07,16,8.90
2016,06,17,07,17,9.10
2016,06,17,07,18,9.10
2016,06,17,07,19,9.10
2016,06,17,07,20,9.20
2016,06,17,07,21,9.20
2016,06,17,07,22,9.20
2016,06,17,07,23,9.30
2016,06,17,07,24,9.30
2016,06,17,07,25,9.30
2016,06,17,07,26,9.30
2016,06,17,07,27,9.40
2016,06,17,07,28,9.40
2016,06,17,07,29,9.50
2016,06,17,07,30,9.60
2016,06,17,07,31,9.60
2016,06,17,07,32,9.70
2016,06,17,07,33,9.80
2016,06,17,07,34,9.80
2016,06,17,07,35,9.90
2016,06,17,07,36,10.10
2016,06,17,07,37,10.20
2016,06,17,07,38,10.20
2016,06,17,07,39,10.30
2016,06,17,07,40,10.30
2016,06,17,07,41,10.30
2016,06,17,07,42,10.40
2016,06,17,07,43,10.50
2016,06,17,07,44,10.60
2016,06,17,07,45,10.70
2016,06,17,07,46,10.70
2016,06,17,07,47,10.70
2016,06,17,07,48,10.70
2016,06,17,07,49,10.80
2016,06,17,07,50,10.80
2016,06,17,07,51,10.80
2016,06,17,07,52,10.80
2016,06,17,07,53,10.90
2016,06,17,07,54,10.90
2016,06,17,07,55,11.10
2016,06,17,07,56,11.10
2016,06,17,07,57,11.20
2016,06,17,07,58,11.30
2016,06,17,07,59,11.30
2016,06,17,08,00,11.40
2016,06,17,08,01,11.40
2016,06,17,08,02,11.50
2016,06,17,08,03,11.60
2016,06,17,08,04,11.60
2016,06,17,08,05,11.70
2016,06,17,08,07,11.70
2016,06,17,08,08,11.80
2016,06,17,08,09,11.80
2016,06,17,08,10,11.90
2016,06,17,08,11,11.90
2016,06,17,08,12,11.90
2016,06,17,08,13,12.00
2016,06,17,08,14,12.00
2016,06,17,08,15,12.10
2016,06,17,08,16,12.10
2016,06,17,08,17,12.20
2016,06,17,08,18,12.30
2016,06,17,08,19,12.30
2016,06,17,08,20,12.30
2016,06,17,08,21,12.40
2016,06,17,08,22,12.40
2016,06,17,08,23,12.40
2016,06,17,08,24,12.30
2016,06,17,08,25,12.30
2016,06,17,08,26,12.30
2016,06,17,08,27,12.30
2016,06,17,08,28,12.30
2016,06,17,08,29,12.30
2016,06,17,08,30,12.30
2016,06,17,08,31,12.30
2016,06,17,08,33,12.40
2016,06,17,08,34,12.50
2016,06,17,08,35,12.60
2016,06,17,08,36,12.70
2016,06,17,08,37,12.70
2016,06,17,08,38,12.80
2016,06,17,08,39,12.80
2016,06,17,08,40,12.80
2016,06,17,08,41,12.80
2016,06,17,08,42,12.80
2016,06,17,08,43,12.80
2016,06,17,08,44,12.80
2016,06,17,08,45,12.90
2016,06,17,08,46,12.90
2016,06,17,08,47,12.90
2016,06,17,08,48,13.00
2016,06,17,08,49,13.00
2016,06,17,08,50,13.10
2016,06,17,08,51,13.10
2016,06,17,08,52,13.20
2016,06,17,08,53,13.20
2016,06,17,08,54,13.20
2016,06,17,08,55,13.30
2016,06,17,08,56,13.30
2016,06,17,08,57,13.40
2016,06,17,08,58,13.40
2016,06,17,08,59,13.50
2016,06,17,09,00,13.60
2016,06,17,09,01,13.60
2016,06,17,09,02,13.70
2016,06,17,09,03,13.70
2016,06,17,09,04,13.80
2016,06,17,09,05,13.90
2016,06,17,09,06,13.90
2016,06,17,09,07,13.90
2016,06,17,09,08,14.10
2016,06,17,09,09,14.10
2016,06,17,09,10,14.10
2016,06,17,09,11,14.20
2016,06,17,09,12,14.20
2016,06,17,09,13,14.30
2016,06,17,09,14,14.30
2016,06,17,09,15,14.30
2016,06,17,09,16,14.30
2016,06,17,09,17,14.40
2016,06,17,09,18,14.40
2016,06,17,09,19,14.40
2016,06,17,09,20,14.40
2016,06,17,09,21,14.40
2016,06,17,09,22,14.40
2016,06,17,09,23,14.50
2016,06,17,09,24,14.60
2016,06,17,09,25,14.70
2016,06,17,09,26,14.70
2016,06,17,09,27,14.70
2016,06,17,09,28,14.80
2016,06,17,09,29,14.80
2016,06,17,09,30,14.80
2016,06,17,09,31,14.90
2016,06,17,09,32,15.00
2016,06,17,09,33,15.10
2016,06,17,09,34,15.10
2016,06,17,09,35,15.10
2016,06,17,09,36,15.10
2016,06,17,09,37,15.20
2016,06,17,09,38,15.20
2016,06,17,09,39,15.20
2016,06,17,09,40,15.30
2016,06,17,09,41,15.30
2016,06,17,09,42,15.30
2016,06,17,09,43,15.30
2016,06,17,09,44,15.30
2016,06,17,09,45,15.30
2016,06,17,09,46,15.30
2016,06,17,09,47,15.30
2016,06,17,09,48,15.30
2016,06,17,09,49,15.30
2016,06,17,09,50,15.30
2016,06,17,09,51,15.30
2016,06,17,09,52,15.30
2016,06,17,09,53,15.30
2016,06,17,09,54,15.40
2016,06,17,09,55,15.30
2016,06,17,09,56,15.30
2016,06,17,09,57,15.30
2016,06,17,09,58,15.30
2016,06,17,09,59,15.40
2016,06,17,10,00,15.40
2016,06,17,10,01,15.50
2016,06,17,10,02,15.50
2016,06,17,10,03,15.60
2016,06,17,10,04,15.60
2016,06,17,10,05,15.70
2016,06,17,10,06,15.80
2016,06,17,10,07,15.90
2016,06,17,10,08,16.00
2016,06,17,10,09,16.10
2016,06,17,10,10,16.10
2016,06,17,10,11,16.10
2016,06,17,10,12,16.20
2016,06,17,10,13,16.20
2016,06,17,10,14,16.30
2016,06,17,10,15,16.30
2016,06,17,10,16,16.40
2016,06,17,10,17,16.40
2016,06,17,10,18,16.40
2016,06,17,10,19,16.40
2016,06,17,10,20,16.40
2016,06,17,10,21,16.60
2016,06,17,10,22,16.60
2016,06,17,10,23,16.70
2016,06,17,10,24,16.80
2016,06,17,10,25,16.80
2016,06,17,10,26,16.80
2016,06,17,10,27,16.70
2016,06,17,10,28,16.70
2016,06,17,10,29,16.60
2016,06,17,10,30,16.60
2016,06,17,10,31,16.60
2016,06,17,10,32,16.60
2016,06,17,10,33,16.60
2016,06,17,10,34,16.70
2016,06,17,10,35,16.80
2016,06,17,10,36,16.90
2016,06,17,10,37,17.00
2016,06,17,10,38,17.10
2016,06,17,10,39,17.10
2016,06,17,10,40,17.20
2016,06,17,10,41,17.30
2016,06,17,10,42,17.30
2016,06,17,10,43,17.40
2016,06,17,10,44,17.40
2016,06,17,10,45,17.40
2016,06,17,10,46,17.50
2016,06,17,10,47,17.50
2016,06,17,10,48,17.60
2016,06,17,10,49,17.70
2016,06,17,10,50,17.70
2016,06,17,10,51,17.80
2016,06,17,10,52,17.90
2016,06,17,10,53,18.00
2016,06,17,10,54,18.10
2016,06,17,10,55,18.20
2016,06,17,10,56,18.30
2016,06,17,10,57,18.40
2016,06,17,10,58,18.40
2016,06,17,10,59,18.50
2016,06,17,11,00,18.50
2016,06,17,11,01,18.50
2016,06,17,11,02,18.50
2016,06,17,11,03,18.50
2016,06,17,11,04,18.50
2016,06,17,11,05,18.50
2016,06,17,11,06,18.40
2016,06,17,11,07,18.50
2016,06,17,11,08,18.60
2016,06,17,11,09,18.60
2016,06,17,11,10,18.70
2016,06,17,11,11,18.80
2016,06,17,11,12,18.90
2016,06,17,11,13,19.00
2016,06,17,11,14,19.10
2016,06,17,11,15,19.10
2016,06,17,11,16,19.20
2016,06,17,11,17,19.30
2016,06,17,11,18,19.30
2016,06,17,11,19,19.20
2016,06,17,11,20,19.20
2016,06,17,11,21,19.20
2016,06,17,11,22,19.20
2016,06,17,11,23,19.20
2016,06,17,11,24,19.30
2016,06,17,11,25,19.30
2016,06,17,11,26,19.40
2016,06,17,11,27,19.40
2016,06,17,11,28,19.50
2016,06,17,11,29,19.60
2016,06,17,11,30,19.70
2016,06,17,11,31,19.70
2016,06,17,11,32,19.70
2016,06,17,11,33,19.70
2016,06,17,11,34,19.70
2016,06,17,11,35,19.70
2016,06,17,11,36,19.70
2016,06,17,11,37,19.70
2016,06,17,11,38,19.60
2016,06,17,11,39,19.60
2016,06,17,11,40,19.60
2016,06,17,11,41,19.60
2016,06,17,11,42,19.60
2016,06,17,11,43,19.50
2016,06,17,11,44,19.50
2016,06,17,11,45,19.50
2016,06,17,11,46,19.50
2016,06,17,11,47,19.60
2016,06,17,11,48,19.60
2016,06,17,11,49,19.60
2016,06,17,11,50,19.60
2016,06,17,11,51,19.60
2016,06,17,11,52,19.60
2016,06,17,11,53,19.60
2016,06,17,11,54,19.60
2016,06,17,11,55,19.60
2016,06,17,11,56,19.60
2016,06,17,11,57,19.60
2016,06,17,11,58,19.60
2016,06,17,11,59,19.60
2016,06,17,12,00,19.70
2016,06,17,12,01,19.80
2016,06,17,12,02,19.90
2016,06,17,12,03,19.90
2016,06,17,12,04,20.10
2016,06,17,12,05,20.10
2016,06,17,12,06,20.10
2016,06,17,12,07,20.10
2016,06,17,12,08,20.20
2016,06,17,12,09,20.20
2016,06,17,12,10,20.20
2016,06,17,12,11,20.20
2016,06,17,12,12,20.20
2016,06,17,12,13,20.20
2016,06,17,12,14,20.30
2016,06,17,12,15,20.30
2016,06,17,12,16,20.40
2016,06,17,12,17,20.40
2016,06,17,12,18,20.40
2016,06,17,12,19,20.40
2016,06,17,12,20,20.40
2016,06,17,12,21,20.30
2016,06,17,12,22,20.20
2016,06,17,12,23,20.10
2016,06,17,12,24,20.10
2016,06,17,12,25,20.10
2016,06,17,12,26,20.00
2016,06,17,12,27,20.00
2016,06,17,12,28,20.00
2016,06,17,12,29,20.10
2016,06,17,12,30,20.10
2016,06,17,12,31,20.20
2016,06,17,12,32,20.30
2016,06,17,12,33,20.30
2016,06,17,12,34,20.40
2016,06,17,12,35,20.40
2016,06,17,12,36,20.40
2016,06,17,12,37,20.50
2016,06,17,12,38,20.60
2016,06,17,12,39,20.60
2016,06,17,12,40,20.60
2016,06,17,12,41,20.70
2016,06,17,12,42,20.70
2016,06,17,12,43,20.80
2016,06,17,12,44,20.80
2016,06,17,12,45,20.80
2016,06,17,12,46,20.80
2016,06,17,12,47,20.80
2016,06,17,12,48,20.80
2016,06,17,12,49,20.80
2016,06,17,12,50,20.90
2016,06,17,12,51,20.90
2016,06,17,12,52,20.90
2016,06,17,12,53,20.90
2016,06,17,12,54,20.90
2016,06,17,12,55,20.90
2016,06,17,12,56,20.90
2016,06,17,12,57,20.90
2016,06,17,12,58,21.00
2016,06,17,12,59,21.00
2016,06,17,13,00,21.10
2016,06,17,13,01,21.10
2016,06,17,13,02,21.10
2016,06,17,13,03,21.20
2016,06,17,13,04,21.20
2016,06,17,13,05,21.20
2016,06,17,13,06,21.20
2016,06,17,13,07,21.20
2016,06,17,13,08,21.20
2016,06,17,13,09,21.20
2016,06,17,13,10,21.20
2016,06,17,13,11,21.30
2016,06,17,13,12,21.30
2016,06,17,13,13,21.20
2016,06,17,13,14,21.20
2016,06,17,13,15,21.20
2016,06,17,13,16,21.20
2016,06,17,13,17,21.10
2016,06,17,13,18,21.00
2016,06,17,13,19,21.10
2016,06,17,13,20,21.10
2016,06,17,13,21,21.10
2016,06,17,13,22,21.10
2016,06,17,13,23,21.10
2016,06,17,13,24,21.10
2016,06,17,13,25,21.10
2016,06,17,13,26,21.20
2016,06,17,13,27,21.20
2016,06,17,13,28,21.20
2016,06,17,13,29,21.20
2016,06,17,13,30,21.30
2016,06,17,13,31,21.30
2016,06,17,13,32,21.30
2016,06,17,13,33,21.30
2016,06,17,13,34,21.30
2016,06,17,13,35,21.30
2016,06,17,13,36,21.30
2016,06,17,13,37,21.30
2016,06,17,13,38,21.30
2016,06,17,13,39,21.40
2016,06,17,13,40,21.40
2016,06,17,13,41,21.50
2016,06,17,13,42,21.60
2016,06,17,13,43,21.60
2016,06,17,13,44,21.70
2016,06,17,13,45,21.70
2016,06,17,13,46,21.70
2016,06,17,13,47,21.60
2016,06,17,13,48,21.70
2016,06,17,13,49,21.70
2016,06,17,13,50,21.70
2016,06,17,13,51,21.70
2016,06,17,13,52,21.70
2016,06,17,13,53,21.70
2016,06,17,13,54,21.60
2016,06,17,13,55,21.60
2016,06,17,13,56,21.60
2016,06,17,13,57,21.70
2016,06,17,13,58,21.70
2016,06,17,13,59,21.80
2016,06,17,14,00,21.80
2016,06,17,14,01,21.80
2016,06,17,14,02,21.70
2016,06,17,14,03,21.70
2016,06,17,14,04,21.70
2016,06,17,14,05,21.70
2016,06,17,14,06,21.70
2016,06,17,14,07,21.70
2016,06,17,14,08,21.80
2016,06,17,14,09,21.80
2016,06,17,14,10,21.80
2016,06,17,14,11,21.80
2016,06,17,14,12,21.80
2016,06,17,14,13,21.80
2016,06,17,14,14,21.70
2016,06,17,14,15,21.70
2016,06,17,14,16,21.70
2016,06,17,14,17,21.60
2016,06,17,14,18,21.60
2016,06,17,14,19,21.60
2016,06,17,14,20,21.60
2016,06,17,14,21,21.60
2016,06,17,14,22,21.70
2016,06,17,14,23,21.70
2016,06,17,14,24,21.80
2016,06,17,14,25,21.80
2016,06,17,14,26,21.90
2016,06,17,14,27,22.00
2016,06,17,14,28,22.10
2016,06,17,14,29,22.10
2016,06,17,14,30,22.10
2016,06,17,14,31,22.20
2016,06,17,14,32,22.20
2016,06,17,14,33,22.20
2016,06,17,14,34,22.20
2016,06,17,14,35,22.20
2016,06,17,14,36,22.20
2016,06,17,14,37,22.20
2016,06,17,14,38,22.10
2016,06,17,14,39,22.10
2016,06,17,14,40,22.10
2016,06,17,14,41,22.10
2016,06,17,14,42,22.10
2016,06,17,14,43,22.10
2016,06,17,14,44,22.10
2016,06,17,14,45,22.10
2016,06,17,14,46,22.20
2016,06,17,14,47,22.20
2016,06,17,14,48,22.20
2016,06,17,14,49,22.20
2016,06,17,14,50,22.30
2016,06,17,14,51,22.30
2016,06,17,14,52,22.30
2016,06,17,14,53,22.30
2016,06,17,14,54,22.20
2016,06,17,14,56,22.20
2016,06,17,14,57,22.20
2016,06,17,14,58,22.20
2016,06,17,15,00,22.20
2016,06,17,15,01,22.30
2016,06,17,15,02,22.30
2016,06,17,15,03,22.30
2016,06,17,15,04,22.30
2016,06,17,15,05,22.40
2016,06,17,15,06,22.40
2016,06,17,15,07,22.40
2016,06,17,15,08,22.40
2016,06,17,15,09,22.50
2016,06,17,15,10,22.60
2016,06,17,15,11,22.60
2016,06,17,15,12,22.70
2016,06,17,15,13,22.70
2016,06,17,15,14,22.70
2016,06,17,15,15,22.70
2016,06,17,15,16,22.70
2016,06,17,15,17,22.70
2016,06,17,15,18,22.60
2016,06,17,15,19,22.60
2016,06,17,15,20,22.50
2016,06,17,15,21,22.40
2016,06,17,15,22,22.40
2016,06,17,15,23,22.40
2016,06,17,15,24,22.40
2016,06,17,15,25,22.50
2016,06,17,15,26,22.50
2016,06,17,15,27,22.60
2016,06,17,15,28,22.60
2016,06,17,15,29,22.60
2016,06,17,15,30,22.50
2016,06,17,15,31,22.50
2016,06,17,15,32,22.50
2016,06,17,15,33,22.50
2016,06,17,15,34,22.40
2016,06,17,15,36,22.30
2016,06,17,15,37,22.30
2016,06,17,15,38,22.20
2016,06,17,15,39,22.20
2016,06,17,15,40,22.20
2016,06,17,15,41,22.10
2016,06,17,15,42,22.10
2016,06,17,15,43,22.10
2016,06,17,15,44,22.10
2016,06,17,15,45,22.10
2016,06,17,15,46,22.10
2016,06,17,15,47,22.20
2016,06,17,15,48,22.20
2016,06,17,15,49,22.30
2016,06,17,15,50,22.30
2016,06,17,15,51,22.30
2016,06,17,15,52,22.30
2016,06,17,15,53,22.40
2016,06,17,15,54,22.40
2016,06,17,15,55,22.50
2016,06,17,15,56,22.60
2016,06,17,15,57,22.60
2016,06,17,15,58,22.70
2016,06,17,15,59,22.70
2016,06,17,16,01,22.80
2016,06,17,16,02,22.80
2016,06,17,16,03,22.80
2016,06,17,16,05,22.80
2016,06,17,16,06,22.80
2016,06,17,16,07,22.80
2016,06,17,16,08,22.80
2016,06,17,16,09,22.80
2016,06,17,16,10,22.90
2016,06,17,16,11,22.90
2016,06,17,16,12,22.90
2016,06,17,16,13,22.90
2016,06,17,16,14,22.90
2016,06,17,16,15,22.80
2016,06,17,16,16,22.80
2016,06,17,16,17,22.70
2016,06,17,16,18,22.60
2016,06,17,16,19,22.60
2016,06,17,16,20,22.60
2016,06,17,16,21,22.60
2016,06,17,16,22,22.60
2016,06,17,16,23,22.60
2016,06,17,16,24,22.70
2016,06,17,16,25,22.70
2016,06,17,16,26,22.70
2016,06,17,16,27,22.70
2016,06,17,16,28,22.70
2016,06,17,16,29,22.70
2016,06,17,16,30,22.60
2016,06,17,16,31,22.60
2016,06,17,16,32,22.60
2016,06,17,16,33,22.60
2016,06,17,16,34,22.60
2016,06,17,16,35,22.70
2016,06,17,16,36,22.70
2016,06,17,16,37,22.60
2016,06,17,16,38,22.60
2016,06,17,16,39,22.50
2016,06,17,16,40,22.40
2016,06,17,16,41,22.40
2016,06,17,16,42,22.30
2016,06,17,16,43,22.40
2016,06,17,16,44,22.40
2016,06,17,16,45,22.40
2016,06,17,16,46,22.40
2016,06,17,16,47,22.40
2016,06,17,16,48,22.40
2016,06,17,16,49,22.40
2016,06,17,16,50,22.40
2016,06,17,16,51,22.40
2016,06,17,16,52,22.40
2016,06,17,16,53,22.40
2016,06,17,16,54,22.40
2016,06,17,16,55,22.40
2016,06,17,16,56,22.40
2016,06,17,16,57,22.40
2016,06,17,16,58,22.40
2016,06,17,16,59,22.40
2016,06,17,17,00,22.40
2016,06,17,17,01,22.40
2016,06,17,17,02,22.30
2016,06,17,17,03,22.30
2016,06,17,17,04,22.20
2016,06,17,17,05,22.10
2016,06,17,17,06,22.10
2016,06,17,17,08,22.00
2016,06,17,17,09,22.00
2016,06,17,17,10,22.00
2016,06,17,17,11,22.10
2016,06,17,17,12,22.10
2016,06,17,17,13,22.10
2016,06,17,17,14,22.10
2016,06,17,17,16,22.20
2016,06,17,17,17,22.20
2016,06,17,17,18,22.20
2016,06,17,17,19,22.20
2016,06,17,17,20,22.30
2016,06,17,17,21,22.30
2016,06,17,17,22,22.30
2016,06,17,17,23,22.30
2016,06,17,17,24,22.30
2016,06,17,17,25,22.30
2016,06,17,17,26,22.40
2016,06,17,17,27,22.40
2016,06,17,17,28,22.30
2016,06,17,17,29,22.30
2016,06,17,17,30,22.30
2016,06,17,17,31,22.20
2016,06,17,17,32,22.20
2016,06,17,17,33,22.20
2016,06,17,17,34,22.10
2016,06,17,17,35,22.10
2016,06,17,17,36,22.10
2016,06,17,17,37,22.10
2016,06,17,17,38,22.20
2016,06,17,17,39,22.20
2016,06,17,17,40,22.20
2016,06,17,17,41,22.30
2016,06,17,17,42,22.30
2016,06,17,17,43,22.30
2016,06,17,17,44,22.40
2016,06,17,17,45,22.40
2016,06,17,17,46,22.40
2016,06,17,17,47,22.40
2016,06,17,17,48,22.40
2016,06,17,17,49,22.40
2016,06,17,17,50,22.40